Belize, Belize

8:34 PM CST on February 13, 2016 (GMT -0600)
Philip S W Goldson International

Weather History for MZBZ - December, 2011

Change the Weather History Date:

Friday, December 16, 2011

  Actual Average Record
Temperature  
Mean Temperature 80 °F -  
Max Temperature 84 °F - - ()
Min Temperature 75 °F 68 °F - ()
Cooling Degree Days 14    
Growing Degree Days 30 (Base 50)    
Moisture  
Dew Point 73 °F    
Average Humidity 80    
Maximum Humidity 100    
Minimum Humidity 66    
Precipitation  
Precipitation 0.04 in 0.21 in - ()
Sea Level Pressure  
Sea Level Pressure 30.00 in    
Wind  
Wind Speed 5 mph ()    
Max Wind Speed 10 mph    
Max Gust Speed -    
Visibility 8.1 miles    
Events Rain    
T = Trace of Precipitation, MM = Missing Value Source: Averaged Metar Reports

Daily Weather History Graph

Daily Weather History Graph

Search for Another Location

Airport or City:

Trip Planner

Search our weather history database for the weather conditions in past years. The results will help you decide how hot, cold, wet, or windy it might be!

Date:

Astronomy

Dec. 16, 2011 Rise Set
Actual Time 6:16 AM CST 5:21 PM CST
Civil Twilight 5:52 AM CST 5:45 PM CST
Nautical Twilight 5:25 AM CST 6:12 PM CST
Astronomical Twilight 4:58 AM CST 6:38 PM CST
Moon 11:04 PM CST (12/16) 10:46 AM CST (12/16)
Length of Visible Light 11h 52m
Length of Day
11h 05m
Waning Gibbous, 64% of the Moon is Illuminated
Dec 16
Waning Gibbous
Dec 17
Last Quarter
Dec 24
New
Jan 1
First Quarter
Jan 9
Full

Hourly Weather History & Observations

Time (CST) Temp. Heat Index Dew Point Humidity Pressure Visibility Wind Dir Wind Speed Gust Speed Precip Events Conditions
12:00 AM 75 °F - 74 °F 97% 29.98 in 5 mi SSE 3.5 mph - - Rain Light Rain
12:00 AM 75.2 °F - 75.2 °F 100% 29.97 in 5.0 mi SSE 3.5 mph - N/A Rain Light Rain
3:00 AM 76 °F - 74 °F 92% 29.95 in 12 mi ENE 4.6 mph - -   Partly Cloudy
3:00 AM 77.0 °F - 73.4 °F 89% 29.94 in 6.2 mi ENE 4.6 mph - N/A   Partly Cloudy
6:00 AM 75 °F - 73 °F 90% 29.99 in 12 mi Calm Calm - -   Partly Cloudy
6:00 AM 75.2 °F - 73.4 °F 94% 29.98 in 6.2 mi Calm Calm - N/A   Mostly Cloudy
7:00 AM 75.2 °F - 73.4 °F 94% 30.00 in 6.2 mi Calm Calm - N/A   Mostly Cloudy
8:00 AM 78.8 °F - 73.4 °F 83% 30.02 in 6.2 mi ENE 4.6 mph - N/A   Mostly Cloudy
9:00 AM 82 °F - 74 °F 69% 30.05 in 16 mi East 8.1 mph - -   Scattered Clouds
9:00 AM 82.4 °F 88.2 °F 73.4 °F 74% 30.04 in 6.2 mi East 8.1 mph - N/A   Mostly Cloudy
10:00 AM 82.4 °F 88.2 °F 73.4 °F 74% 30.04 in 6.2 mi East 9.2 mph - N/A   Mostly Cloudy
11:00 AM 82.4 °F 88.2 °F 73.4 °F 74% 30.03 in 6.2 mi East 9.2 mph - N/A   Mostly Cloudy
12:00 PM 82 °F - 72 °F 66% 30.03 in 16 mi East 8.1 mph - -   Partly Cloudy
12:00 PM 82.4 °F 87.2 °F 71.6 °F 70% 30.02 in 6.2 mi East 8.1 mph - N/A   Mostly Cloudy
1:00 PM 84.2 °F 89.6 °F 71.6 °F 66% 30.00 in 6.2 mi ENE 8.1 mph - N/A   Mostly Cloudy
2:00 PM 84.2 °F 90.9 °F 73.4 °F 70% 29.98 in 6.2 mi East 8.1 mph - N/A   Mostly Cloudy
3:00 PM 82 °F - 74 °F 69% 29.98 in 12 mi ENE 6.9 mph - - Rain Light Rain Showers
3:00 PM 82.4 °F 88.2 °F 73.4 °F 74% 29.97 in 6.2 mi ENE 6.9 mph - N/A   Mostly Cloudy
4:00 PM 82.4 °F 87.2 °F 71.6 °F 70% 29.97 in 6.2 mi ENE 10.4 mph - N/A   Mostly Cloudy
5:00 PM 80.6 °F 84.6 °F 71.6 °F 74% 29.98 in 6.2 mi NE 9.2 mph - N/A   Mostly Cloudy
6:00 PM 78 °F - 73 °F 81% 30.01 in 12 mi NNE 6.9 mph - -  
6:00 PM 78.8 °F - 73.4 °F 83% 30.01 in 6.2 mi NNE 6.9 mph - N/A   Mostly Cloudy
9:00 PM 78 °F - 73 °F 80% 30.07 in 12 mi ENE 5.8 mph - -   Partly Cloudy
9:00 PM 78.8 °F - 73.4 °F 83% 30.07 in 6.2 mi ENE 5.8 mph - N/A   Scattered Clouds